Voltar ao catálogo

STARLINK-3500

AtivoComunicaçõesVLEO
NORAD 51740·PAYLOAD·🇺🇸 United States

Lançado Feb 21, 2022 de Cape Canaveral Space Force Station

Loading…

Próximas Passagens (próximas 24 horas)

TLE

AtualizadoSource: CelesTrak SupGP

Época: Sep 14, 2026, 20:34 UTC

1 51740C 22016AC  26257.85743056 -.00014221  00000+0 -42018-3 0  2574
2 51740  53.1590 175.7594 0001237  94.3318 255.5148 15.34396393    18

Acompanhe STARLINK-3500 em tempo real com AllMySat

Download on the App Store